To NAV CANADA Home Page Login to a new session Search on AWWS site Feedback and Comments Disclaimer Vers la page française équivalente Tips FAQ What's new on the site To the Forecasts and Observations / NOTAM section To "File a Flight Plan" website Publications and other links Update of the User's profile FIC Telephone Numbers My Weather Data Folder Route Weather Data Regional Weather Data Local Weather Data To the Forecasts and Observations / NOTAM section
Request Generated 05/01/2016 at 02:24:13 UTC . Weather information available at that time is displayed.

METAR/TAF

DEASE LAKE/BC    (show WxCam)

METAR CYDL 010200Z AUTO 16007G16KT 120V200 9SM OVC041 08/M00 A3002
RMK SLP187=
METAR CYDL 010100Z AUTO 17009G17KT 130V210 9SM OVC043 08/M00 A3002
RMK SLP189=
METAR CYDL 010000Z AUTO 21009G16KT 9SM BKN065 07/01 A3004 RMK SLP197=

*** REMARK        : Forecast period has ended; this was the last TAF issued
*** REMARQUE : La période de prévision est échue; ceci était le dernier TAF qui a été émis
TAF CYDL 302338Z 0100/0102 18010G20KT P6SM OVC050 TEMPO 0100/0102
P6SM -RA
RMK FCST BASED ON AUTO OBS. NXT FCST WILL BE ISSUED AT 011545Z=
Your time UTC time
Weather data provided by Environment Canada and NAV CANADA